Wind_Gust
6 9 9 11 12 11 12 12 13 14 14 15 17 19 19 17 17 16 15 17 18 19 18 15 11 9 12 12 10 11 10 10 14 13 13 14 14 14 14 13 13 12 11 12 12 12 12 13 12 12 10 12 18 19 19 19 17 16 17 19 19 16 15 16 16 12 9 7 16 18 19 20 22 19 20 19 18 17 13 17 20 18 15 13 13
11 10 12 11 13 14 13 15 14 16 14 15 17 18 19 19 18 18 16 16 17 20 21 20 18 15 10 10 11 13 12 11 9 9 13 14 14 13 13 12 13 12 12 14 14 14 13 15 14 13 13 14 16 18 18 19 16 17 18 16 18 15 13 19 12 18 21 9 16 12 18 21 19 18 21 21 20 14 15 16 16 17 17 14 13
15 14 12 13 14 14 14 16 17 17 17 16 18 19 20 19 20 20 21 20 20 20 21 21 21 21 19 14 13 11 12 15 12 12 14 14 14 11 10 14 14 14 14 15 16 16 14 15 15 12 11 13 21 22 20 21 21 20 20 18 17 14 11 10 15 16 19 15 19 18 17 18 20 22 20 22 21 18 19 17 19 17 17 16 15
14 16 16 16 13 15 18 17 17 18 19 19 19 19 20 19 20 20 20 21 24 23 21 23 21 21 22 22 18 12 12 12 12 10 12 12 12 11 12 10 13 15 16 15 14 15 17 15 16 14 13 16 20 23 23 22 21 20 21 15 19 24 23 23 19 16 15 18 17 21 20 21 14 18 19 19 22 18 18 18 16 18 17 19 18
15 16 17 17 16 18 18 19 19 18 19 19 20 20 19 21 20 21 20 22 23 25 24 23 22 23 24 23 23 24 25 28 25 20 17 12 11 12 14 14 16 17 17 14 13 15 16 18 17 15 13 14 13 17 20 20 17 12 16 20 22 23 18 18 18 18 17 16 16 15 18 20 19 18 20 22 19 18 18 20 19 17 17 19 18
15 18 18 17 18 17 17 18 18 17 18 19 19 20 20 19 21 19 21 21 22 22 23 25 24 24 23 23 22 27 29 29 28 27 26 25 21 12 12 15 15 16 16 14 12 13 15 16 15 16 16 16 18 16 14 14 18 18 17 14 13 14 13 13 13 17 15 16 15 15 17 21 18 20 22 21 22 20 17 19 18 18 17 20 17
17 17 18 17 17 17 18 18 19 17 18 20 20 21 21 21 22 23 22 23 24 25 24 25 24 24 25 23 23 24 27 29 28 27 27 28 25 20 11 11 13 15 16 14 15 16 17 15 12 13 15 15 12 13 13 13 12 13 16 18 17 14 14 14 14 15 16 16 16 16 19 18 22 23 23 21 21 22 23 18 18 18 15 20 16
19 19 18 18 19 20 19 17 19 20 19 20 20 20 21 22 22 21 22 23 25 24 24 24 23 22 24 23 22 22 26 29 27 28 26 25 24 21 19 13 13 14 14 15 14 17 16 14 13 13 14 13 13 12 15 18 13 12 12 13 15 15 15 14 15 17 15 16 17 16 17 17 13 15 23 21 21 17 20 22 21 17 14 17 18
19 19 19 19 19 19 19 17 19 20 20 20 21 22 23 21 23 22 22 24 23 24 25 23 24 25 25 24 24 23 24 24 23 26 25 24 21 21 20 19 14 12 13 16 17 17 17 19 17 14 13 14 14 14 14 14 18 15 13 14 16 18 15 17 16 16 15 16 19 17 20 20 18 19 23 22 26 28 22 16 20 16 15 15 14
20 20 20 19 19 20 19 18 20 19 20 21 22 21 23 23 24 23 25 25 24 24 24 24 24 24 25 25 24 22 22 21 34 32 23 22 22 21 20 18 16 13 12 14 13 13 13 14 16 17 16 16 20 22 21 19 17 16 17 17 19 18 18 17 17 17 17 17 21 23 22 24 22 22 25 23 21 18 17 15 20 13 15 15 14
20 20 23 21 20 20 20 21 21 22 21 21 20 24 26 23 24 25 25 24 26 26 25 26 27 25 24 25 24 24 22 30 35 28 27 26 22 22 21 21 16 14 11 12 13 11 11 15 16 16 14 14 18 21 21 19 18 17 16 16 16 23 20 21 19 17 20 19 18 22 23 24 24 22 23 22 24 23 23 21 18 15 20 19 21
20 20 22 21 22 22 21 23 22 22 22 24 23 22 22 25 25 24 26 26 25 25 27 25 24 24 24 24 21 23 20 29 32 31 28 27 24 23 19 19 17 13 13 13 11 10 13 14 12 9 11 12 10 13 14 15 17 15 16 18 18 21 13 22 21 17 15 17 17 21 23 24 25 20 21 21 25 21 20 20 20 21 20 22 19
21 23 22 22 20 20 22 23 23 22 23 24 22 23 26 25 25 24 25 22 20 25 24 24 24 25 25 25 24 24 20 27 32 32 30 28 27 22 17 21 17 15 13 11 11 12 15 15 10 11 16 16 12 13 15 15 9 7 11 13 8 8 9 18 11 19 13 13 15 16 23 22 22 21 21 27 25 24 18 20 20 22 22 22 19
23 23 20 21 21 23 23 22 23 22 22 22 22 24 24 24 21 19 18 19 21 21 22 24 23 25 26 24 23 23 21 28 32 32 31 31 29 23 14 16 16 15 15 13 10 9 12 16 15 12 12 14 15 14 11 12 12 12 12 9 9 8 9 9 8 16 18 14 12 16 14 13 25 16 12 18 28 28 25 24 21 21 22 25 15
21 19 19 22 23 23 21 23 22 21 21 20 19 20 20 19 21 20 19 21 22 22 21 22 22 23 24 25 24 24 25 30 33 33 33 33 31 19 14 14 14 16 13 14 12 10 11 13 15 17 13 11 11 12 11 12 13 14 11 10 12 11 10 9 7 10 19 13 16 13 9 6 11 11 10 9 14 14 21 25 23 20 17 13 13
21 18 19 19 21 21 22 21 19 20 21 21 20 20 18 19 18 16 17 17 17 17 17 18 21 23 26 27 28 25 26 30 34 34 34 34 31 22 19 15 15 16 12 15 17 16 13 8 12 15 13 11 12 17 13 13 15 16 14 11 12 12 10 7 8 8 12 14 17 15 9 12 8 13 10 14 18 9 13 16 19 20 23 19 17
17 17 18 19 19 21 22 23 20 20 22 22 21 19 19 20 17 15 17 18 19 20 19 19 19 22 25 27 27 25 26 30 34 35 34 36 26 24 23 23 22 20 19 15 15 15 15 15 14 11 12 12 12 19 17 14 15 15 12 12 11 12 11 11 17 18 20 21 20 18 19 20 19 18 18 20 18 14 18 20 18 20 23 20 10
19 17 17 17 18 19 20 21 21 21 22 24 23 20 18 18 17 17 17 18 20 19 19 18 19 19 21 23 26 25 26 28 33 34 34 35 29 25 23 23 23 21 20 18 17 16 19 26 25 20 11 8 9 14 16 15 14 14 14 16 14 16 13 11 15 17 17 18 17 18 17 20 23 22 21 20 19 14 20 22 21 20 22 23 20
16 16 17 17 17 16 16 18 19 21 22 22 22 22 19 19 17 17 17 16 16 17 17 19 18 19 20 20 21 25 26 26 31 33 34 35 34 23 25 23 22 22 20 20 17 16 17 17 24 23 19 14 11 18 21 18 17 15 15 15 15 15 13 9 15 16 19 19 19 20 23 22 20 20 26 28 23 16 17 17 20 21 22 19 21
14 14 16 18 18 18 17 16 16 19 22 22 23 20 19 19 20 18 18 18 18 17 17 17 18 21 20 20 25 25 27 28 30 33 32 33 35 28 25 25 25 21 21 21 20 22 20 21 20 25 27 22 12 16 15 15 18 15 14 15 17 17 14 13 12 15 18 19 17 17 16 16 18 18 22 22 23 22 23 18 16 15 21 19 18
16 14 14 17 19 21 20 17 17 18 20 22 23 23 22 21 20 19 19 19 19 19 18 16 18 19 18 20 22 24 26 27 29 32 31 31 33 30 24 26 21 21 19 20 20 20 22 24 19 24 24 21 14 15 16 16 13 15 13 14 15 14 12 17 19 15 20 18 18 18 16 17 18 18 18 19 18 20 21 18 20 18 19 22 20
16 16 16 17 17 19 19 18 16 17 18 21 23 22 21 22 22 21 20 20 20 21 19 17 17 17 18 20 22 23 23 25 27 27 31 30 29 31 25 22 24 19 22 23 22 23 21 21 22 24 27 25 20 19 19 19 19 17 19 18 20 19 19 16 15 16 17 16 17 19 18 18 19 19 19 19 19 19 20 24 21 23 24 20 19
15 15 15 15 14 15 15 17 17 18 18 19 20 20 20 20 20 20 20 19 21 20 21 20 19 19 18 19 20 22 24 23 26 27 28 29 29 28 27 25 24 23 22 23 21 22 20 21 23 28 26 27 23 22 21 22 17 17 20 20 19 21 16 14 14 16 17 16 17 17 16 16 18 17 18 20 17 18 20 22 24 23 24 21 19
12 12 12 14 14 15 15 16 17 15 14 15 16 18 19 19 19 20 19 20 19 20 20 19 20 20 21 19 19 21 22 23 20 26 28 28 27 27 26 27 25 21 21 22 21 23 24 23 23 29 30 27 25 27 27 22 21 20 19 20 18 13 15 15 14 16 15 16 17 16 16 15 17 17 18 17 18 18 19 21 23 23 22 22 22
10 11 12 13 12 16 13 15 17 17 16 16 16 17 17 17 19 19 19 19 19 19 18 17 18 19 19 19 18 20 22 23 24 26 28 26 25 26 25 26 24 22 24 21 22 25 24 27 27 29 31 29 26 24 23 25 27 24 22 19 14 15 16 17 16 16 18 17 17 16 16 14 15 15 14 16 17 18 20 19 20 19 19 22 21
11 13 14 12 13 17 15 14 14 14 15 16 15 15 15 17 17 18 18 19 19 19 19 18 18 18 18 19 19 19 19 19 22 24 20 20 19 24 24 24 24 23 20 21 22 27 27 26 28 28 28 30 28 26 23 24 26 28 26 22 19 17 14 16 16 19 17 15 16 17 15 13 13 12 12 13 15 16 17 17 18 16 18 20 23
9 9 10 11 9 11 11 10 11 11 12 14 15 14 14 14 15 16 17 18 19 18 20 19 17 17 18 17 17 17 18 18 20 21 22 23 22 20 22 22 19 19 21 20 17 21 26 25 24 23 22 28 28 23 23 23 27 26 24 22 20 20 18 16 16 19 16 16 15 14 11 10 9 10 10 11 13 11 12 14 15 15 15 17 20
11 11 10 9 10 12 10 8 10 10 11 11 12 12 12 12 14 14 14 15 16 18 18 19 18 17 17 17 16 17 17 16 17 19 21 20 19 20 20 20 19 18 19 16 16 19 22 18 23 25 26 28 29 27 25 25 25 24 25 23 21 19 18 17 17 18 16 13 13 12 13 13 13 12 13 14 12 10 9 13 14 15 14 16 17
9 12 10 8 8 7 9 11 10 10 10 11 11 9 8 9 9 10 10 9 10 11 14 15 15 14 13 14 17 17 16 16 16 12 16 13 17 16 18 18 18 18 19 18 20 24 25 26 26 27 26 25 25 26 25 24 24 24 25 24 21 20 19 18 19 18 15 16 15 13 11 12 13 13 13 14 14 12 10 12 11 12 12 14 16
10 9 11 13 11 10 9 9 11 12 11 10 9 9 7 9 9 8 6 5 7 9 7 12 12 14 11 9 8 11 11 12 12 15 15 16 18 18 16 18 18 19 19 23 19 21 20 21 22 22 22 22 23 23 23 22 22 23 22 17 21 20 20 19 18 16 15 15 14 15 15 15 15 15 15 15 14 12 10 9 8 8 10 10 13
12 11 10 11 12 12 11 11 12 9 9 10 10 9 7 8 8 8 6 4 5 7 7 8 12 13 13 13 10 9 10 14 18 15 14 15 17 17 16 16 17 18 16 17 21 19 18 18 17 16 16 16 17 17 16 17 16 16 17 15 15 15 14 14 14 13 15 15 15 14 14 14 13 12 11 11 11 9 9 8 9 9 11 12 14
11 11 11 9 11 14 16 14 10 9 10 9 11 10 6 5 6 5 4 4 6 7 7 8 9 10 11 10 9 14 15 17 20 18 14 13 14 15 15 15 15 17 16 13 19 16 15 15 15 15 13 14 13 12 13 14 14 13 12 14 14 11 12 11 8 9 8 8 8 7 7 7 7 7 6 7 7 7 7 9 9 9 10 12 14
9 9 10 8 9 10 11 11 9 12 12 11 12 12 13 13 13 12 8 8 8 8 9 9 9 9 10 11 12 12 11 17 23 21 18 13 11 12 14 16 15 14 13 17 15 14 13 13 14 12 12 13 12 12 11 12 11 11 11 11 11 11 11 9 8 10 8 8 7 7 7 7 7 6 6 7 8 7 10 9 9 9 11 11 10
9 8 9 10 8 9 12 11 11 11 10 11 11 12 12 11 10 12 13 12 10 7 9 10 9 9 9 7 11 13 15 19 23 24 21 18 12 10 11 13 14 14 12 13 12 13 11 12 12 11 10 9 9 9 10 10 9 9 9 9 9 8 9 9 10 10 9 9 9 8 8 8 7 9 10 9 10 11 12 10 10 11 11 9 11
5 5 7 8 8 8 10 10 10 9 8 11 13 12 10 9 9 10 12 13 15 14 15 13 8 6 5 5 6 11 13 19 21 22 24 22 19 12 9 14 17 16 16 13 12 11 11 11 10 10 9 9 8 7 9 8 8 8 8 8 8 9 8 9 9 8 9 9 9 9 8 9 9 9 11 11 12 12 10 11 12 11 10 12 12
8 9 12 13 14 11 7 8 8 8 8 10 12 12 8 8 10 10 9 12 12 12 10 11 13 10 8 4 4 8 11 14 20 20 22 21 21 15 16 15 13 15 13 13 12 12 11 11 10 10 9 9 8 9 8 8 7 7 7 7 8 7 7 8 9 9 8 8 7 7 8 9 9 9 10 11 10 10 9 9 9 8 9 10 9
10 9 8 8 8 12 4 8 10 7 6 5 10 10 9 9 8 8 10 11 10 7 9 10 11 12 12 9 8 5 6 10 16 16 18 19 18 15 15 14 13 12 12 13 13 12 13 12 10 10 10 9 9 8 8 9 9 8 7 8 7 7 8 6 7 6 8 8 9 9 7 8 8 10 11 10 9 9 8 8 9 10 10 11 9
9 8 4 6 10 9 6 11 13 8 9 9 10 9 9 9 8 9 7 9 10 7 9 10 7 12 15 14 10 12 5 7 11 10 10 12 15 14 14 14 14 13 11 12 12 11 11 11 11 11 10 9 9 9 10 9 7 7 6 7 9 10 9 9 7 10 10 9 9 9 10 11 10 10 10 10 9 8 8 6 9 11 12 12 10
8 8 7 6 6 9 7 7 11 10 10 10 7 8 8 6 6 8 8 8 7 7 6 7 9 10 10 9 11 10 9 9 10 10 10 11 12 12 13 13 13 13 11 11 10 10 10 11 11 11 11 11 9 8 7 7 6 7 7 8 9 9 11 10 11 10 11 10 10 10 10 9 9 8 10 10 9 9 9 9 8 8 10 10 10
11 5 6 5 9 11 12 8 12 12 9 10 10 8 8 6 7 6 6 5 6 7 8 4 7 6 4 7 8 10 9 7 8 7 8 8 9 10 11 12 12 13 13 11 10 9 9 10 10 11 12 11 10 9 9 8 8 8 7 7 9 11 11 10 11 12 12 11 11 12 11 10 10 11 10 11 9 8 9 8 8 8 8 7 7
9 6 5 5 5 9 11 12 12 12 10 7 7 11 9 7 3 3 7 5 4 7 7 5 5 4 4 5 8 7 7 8 6 5 6 7 7 9 10 11 10 13 13 13 12 9 9 9 10 10 11 11 12 12 11 9 7 6 7 8 10 10 10 10 10 10 11 11 10 10 10 12 10 10 10 8 6 7 8 7 8 8 9 8 8
9 9 8 6 4 7 11 9 9 9 7 7 10 5 5 7 5 6 6 7 5 5 8 9 3 5 5 6 7 9 7 7 7 6 5 7 6 9 8 10 9 10 11 13 13 10 8 10 9 8 10 10 11 12 13 14 11 11 12 13 13 13 13 12 11 10 10 10 10 9 9 9 8 9 10 6 9 7 7 8 5 4 6 7 7
6 6 6 11 9 6 9 8 9 8 7 10 11 6 6 8 8 7 5 6 7 7 6 7 10 6 5 7 8 7 6 7 7 9 6 6 5 8 8 8 8 9 10 12 13 13 8 9 10 10 10 9 8 9 10 12 15 13 13 13 14 14 13 13 13 13 12 13 13 12 11 11 11 10 11 10 9 8 10 10 10 9 8 8 9
6 7 5 8 8 7 7 7 8 7 4 8 9 9 10 5 6 9 9 8 8 5 4 6 8 11 10 7 6 6 7 5 6 6 7 7 8 8 7 7 7 8 8 9 11 12 11 10 11 11 10 11 10 8 9 10 12 13 12 11 12 12 12 11 10 10 11 13 16 14 12 10 12 12 12 11 11 11 9 7 8 9 10 8 8
4 6 7 6 7 6 6 6 8 6 5 9 8 8 11 9 6 4 6 6 6 7 3 3 5 10 11 9 8 6 7 5 4 6 8 9 11 9 7 8 5 7 5 7 6 9 9 10 9 9 10 10 11 12 10 11 12 12 11 12 12 13 11 10 8 8 11 11 11 11 12 12 12 12 12 12 9 9 10 7 6 8 8 8 10
5 4 5 4 4 4 3 3 4 6 4 6 5 5 6 9 7 10 7 10 8 4 2 3 5 6 6 10 10 6 6 5 6 6 9 8 8 6 5 5 6 6 4 3 5 6 8 9 8 8 8 9 10 11 12 12 14 13 13 12 11 9 9 11 11 12 13 12 11 10 10 11 11 11 10 11 11 11 9 6 6 8 7 5 6
2 4 6 5 4 3 3 2 2 2 4 4 4 5 5 8 10 8 9 14 14 10 3 4 4 3 4 3 5 5 4 4 5 6 7 9 8 7 7 7 5 5 4 4 5 5 4 5 5 4 4 5 8 10 10 10 13 11 11 11 10 11 10 9 10 10 10 11 11 11 11 9 10 9 10 10 8 9 10 9 8 5 4 7 4
6 5 4 5 5 3 2 4 5 5 6 9 7 7 6 9 10 8 9 11 12 11 8 8 7 5 6 6 5 6 5 4 4 6 7 6 8 6 7 7 8 6 6 2 3 3 2 3 4 4 3 4 7 8 8 11 10 10 10 9 9 9 11 10 9 10 8 8 9 10 10 11 10 9 9 7 7 6 8 9 10 8 7 5 5
4 3 5 4 4 3 2 2 7 7 8 4 6 5 8 9 9 8 8 9 10 10 9 12 12 11 11 9 8 11 12 9 9 9 5 6 8 8 6 6 7 9 7 6 4 4 2 2 2 3 7 4 9 9 10 10 11 8 8 6 8 10 12 11 8 9 9 9 9 9 9 10 9 8 8 9 9 7 7 8 6 7 8 7 7
6 4 6 5 4 7 5 2 4 8 6 4 4 4 7 9 6 7 9 9 9 11 8 9 8 11 12 10 11 12 13 13 13 12 11 5 5 6 6 7 5 8 9 7 6 5 4 3 2 2 4 5 7 10 11 10 7 7 6 6 7 9 8 8 9 10 10 6 7 6 6 8 9 9 9 8 8 9 8 7 8 8 8 9 7
8 7 7 8 5 7 8 3 4 6 4 4 7 7 8 6 6 6 8 8 9 10 10 9 7 10 9 8 9 11 12 12 13 12 12 14 9 6 7 7 5 4 5 4 5 5 4 5 5 5 4 4 10 12 10 8 6 6 7 7 8 7 7 7 8 9 9 7 6 7 8 7 8 10 9 9 8 8 9 9 9 8 7 8 8
Wind_Speed
4 6 5 6 7 7 7 8 7 8 7 9 8 8 8 8 9 9 9 9 10 11 11 10 7 5 5 4 4 4 4 3 3 4 6 6 6 3 4 6 6 6 6 7 7 7 7 8 7 7 5 6 6 6 6 6 5 5 6 7 8 9 8 8 8 6 2 2 8 8 10 12 10 11 11 9 9 7 9 8 9 8 7 7 8
6 5 6 6 7 8 9 9 8 10 9 9 10 9 9 9 10 10 10 9 10 10 12 10 11 10 7 5 5 5 4 4 4 4 6 6 5 5 5 7 7 6 6 7 8 7 7 8 8 8 8 9 6 7 7 6 5 6 6 5 6 9 7 8 7 9 8 3 5 3 8 12 10 10 11 11 10 8 9 7 7 9 8 7 7
8 8 7 8 8 9 9 9 10 11 11 10 11 11 11 11 11 11 11 11 11 10 12 12 11 12 12 9 7 6 4 4 4 6 6 6 5 5 5 3 5 6 7 8 8 8 8 8 9 8 6 6 7 6 5 5 3 4 5 3 4 8 3 4 4 3 8 7 8 8 8 9 10 11 11 11 12 10 9 9 9 8 7 8 8
8 9 9 9 9 10 11 10 11 11 12 11 12 12 12 11 11 11 11 11 12 12 12 13 12 12 12 13 12 8 6 7 7 6 6 4 5 6 6 5 5 6 7 8 8 7 8 8 8 7 7 8 7 6 4 4 3 3 3 4 2 4 4 6 4 2 3 2 3 7 8 10 5 10 10 10 11 9 8 8 8 9 8 7 8
8 9 9 9 9 10 11 11 11 11 12 11 13 12 12 11 10 12 11 12 12 12 12 13 13 13 12 13 14 15 16 17 16 14 12 7 4 4 4 5 6 8 8 7 8 8 9 10 10 8 7 8 7 6 5 5 6 6 6 7 6 4 5 7 7 7 8 8 4 3 4 8 6 9 11 11 9 8 7 9 10 10 9 8 7
9 9 9 9 9 11 11 11 11 11 11 12 12 12 11 11 11 11 12 12 12 12 12 12 11 13 13 13 12 13 12 12 13 12 12 13 12 7 5 6 7 8 9 8 7 8 9 9 8 8 9 9 8 6 6 8 8 9 8 5 5 6 7 7 7 7 9 9 7 6 3 6 6 7 11 11 11 9 7 8 8 8 8 7 7
10 10 11 11 10 11 11 11 11 10 11 12 11 12 12 12 11 12 12 13 13 13 13 13 12 12 13 12 11 12 12 12 13 14 14 13 12 11 7 5 5 6 7 8 7 7 8 6 6 7 9 9 7 8 8 8 7 5 8 10 10 8 8 7 8 9 9 9 8 7 7 7 10 9 9 10 11 11 11 9 8 8 7 10 9
11 11 11 11 11 12 11 10 11 11 11 11 11 11 11 11 11 11 12 13 13 13 12 13 11 11 13 12 12 9 12 14 15 16 13 12 12 11 11 8 8 7 7 5 6 8 9 7 7 7 8 8 8 7 8 8 6 6 6 7 8 9 8 7 7 8 8 8 9 8 7 4 4 5 7 9 9 6 9 10 11 9 7 8 8
11 11 10 10 11 11 10 10 11 12 12 12 12 12 11 11 11 11 12 12 11 13 14 13 13 14 14 13 13 10 10 11 11 13 13 14 11 11 11 11 8 6 6 7 9 10 9 9 8 7 8 11 11 11 10 8 7 8 8 8 9 9 8 8 8 8 7 8 6 5 7 8 9 8 9 9 12 13 8 9 9 9 8 7 6
11 10 11 11 11 11 10 10 11 10 11 11 11 11 10 10 10 11 11 11 11 12 13 14 13 14 14 14 13 10 9 10 21 23 17 12 13 10 10 8 8 5 6 8 8 7 7 7 9 13 13 11 11 12 12 12 12 10 9 10 11 10 10 10 9 8 8 9 9 9 9 11 10 12 12 12 11 10 9 9 10 7 8 9 6
10 11 12 11 11 10 10 10 10 10 9 9 9 10 10 9 9 10 10 10 11 11 11 14 15 13 13 13 13 10 9 14 25 21 20 20 13 10 10 10 8 7 5 5 5 6 7 9 10 11 11 10 9 13 13 12 11 12 12 14 14 13 11 11 10 10 10 9 9 10 10 12 12 11 12 11 11 12 12 10 9 8 9 9 9
10 11 11 10 10 11 10 10 11 10 10 10 9 8 8 8 8 8 9 10 9 9 11 11 11 12 12 13 12 11 9 22 24 23 22 22 19 13 10 9 8 7 5 5 5 6 7 7 6 3 3 6 6 8 10 12 13 13 12 14 15 17 11 9 7 7 8 9 9 11 11 12 13 11 10 10 12 11 11 10 10 11 11 11 9
9 10 10 10 10 10 10 9 9 9 9 10 9 9 8 8 8 9 10 8 7 9 9 10 11 11 12 13 13 11 10 21 25 25 23 22 21 16 9 9 8 8 7 6 5 6 5 4 5 4 5 8 7 7 7 6 4 6 7 7 3 2 3 17 11 9 7 6 7 9 11 11 12 11 11 13 12 12 10 10 10 11 11 12 10
9 9 9 10 10 9 10 11 11 11 10 8 8 9 9 9 7 7 8 8 9 9 9 10 10 11 12 12 11 12 12 21 24 25 24 24 23 17 8 9 7 7 7 6 4 3 4 5 5 6 6 7 6 6 5 4 5 4 3 4 4 3 2 4 3 14 14 8 6 9 8 7 12 10 8 12 15 14 12 13 12 12 12 13 9
9 8 9 9 8 8 9 10 11 11 11 10 9 8 8 8 8 7 8 9 9 9 9 10 10 10 11 11 11 12 12 23 24 25 25 26 25 15 8 8 8 6 6 7 5 4 5 5 7 8 6 5 7 8 7 7 6 5 4 5 4 2 1 3 3 1 6 6 6 3 3 3 6 7 6 5 10 9 12 14 13 11 7 6 7
7 7 7 6 7 7 7 8 9 10 10 10 10 10 9 7 9 7 6 7 7 7 7 8 10 11 11 12 12 13 13 24 25 26 26 26 25 12 11 8 8 7 6 9 8 7 7 4 6 7 6 7 9 14 9 6 7 7 6 5 4 2 3 3 4 6 5 1 2 3 3 2 6 5 6 7 6 6 6 6 8 10 11 10 8
6 7 7 7 6 6 7 8 9 10 10 11 11 11 10 10 7 7 7 7 8 9 9 9 9 10 11 12 13 12 13 21 26 26 26 27 20 12 13 11 12 11 10 8 8 8 7 8 7 6 6 5 8 11 11 11 6 6 7 6 4 5 5 5 10 13 14 15 15 14 10 9 5 3 6 10 10 10 10 11 10 11 12 10 6
7 9 9 9 9 7 9 11 11 12 11 11 11 10 10 10 9 9 9 8 8 8 7 8 8 9 11 12 12 12 13 18 25 25 26 26 20 11 11 11 10 12 11 11 9 9 9 18 15 10 6 3 4 10 11 9 7 8 7 7 7 7 4 2 5 9 14 15 14 15 13 11 14 13 9 4 2 8 12 12 11 11 12 12 9
9 10 10 10 9 9 9 10 11 11 11 11 10 11 10 9 8 8 9 8 9 7 6 7 8 8 10 11 16 15 13 16 23 24 25 25 20 12 12 11 11 12 11 11 10 8 9 10 17 15 11 10 4 13 13 10 7 8 8 8 8 7 3 3 6 8 8 9 9 10 10 10 9 8 10 16 14 9 1 7 11 11 11 10 11
7 8 8 7 7 8 7 8 9 10 10 9 9 9 7 8 9 8 8 8 7 7 7 7 8 8 9 11 11 12 14 14 18 24 24 24 24 15 13 11 13 12 11 11 11 12 11 11 13 19 20 17 5 14 12 8 7 5 7 8 9 8 4 6 7 8 8 10 9 9 9 8 8 9 10 11 9 8 8 6 1 6 11 10 10
6 5 5 6 6 6 6 7 8 9 8 8 7 7 7 7 8 8 9 8 8 8 8 7 9 9 8 9 11 12 12 14 16 23 23 23 24 19 11 13 10 10 10 11 10 11 12 12 11 18 19 18 6 13 12 12 9 6 5 6 5 8 9 9 9 11 10 10 10 9 8 8 8 8 8 8 8 8 8 8 8 4 7 11 9
6 6 5 5 6 7 7 6 5 7 7 7 7 7 7 7 7 7 7 8 9 9 8 7 8 9 8 9 10 11 12 17 14 19 22 22 22 23 13 12 12 10 12 12 12 12 12 11 12 16 22 20 18 4 11 12 12 8 9 12 14 14 9 8 8 8 9 9 9 9 8 8 8 9 8 8 8 9 9 11 12 12 11 8 7
5 5 5 7 7 7 7 8 5 5 6 7 7 8 7 7 8 8 9 9 10 10 10 8 8 9 9 9 8 10 11 11 17 16 20 21 22 21 21 15 17 11 12 12 12 12 10 11 13 22 21 22 19 16 13 14 11 10 16 16 15 13 9 6 7 9 9 9 9 9 7 8 8 7 7 8 8 9 10 10 13 12 11 11 11
4 5 5 6 7 6 6 6 6 4 5 6 7 7 8 7 7 8 8 9 9 10 9 9 9 10 10 9 9 9 10 10 13 19 17 20 19 20 20 21 20 13 11 10 10 12 13 13 14 22 24 22 19 18 21 18 12 13 13 15 14 10 7 7 7 8 9 9 9 8 7 5 7 8 7 5 7 10 10 11 11 12 12 11 13
4 4 5 6 6 5 5 6 5 5 4 5 7 7 7 6 8 7 8 9 9 10 9 9 9 9 9 9 9 9 9 10 10 14 19 19 18 19 19 19 19 17 13 11 11 12 16 21 21 22 24 23 21 19 18 20 22 19 18 16 12 7 7 7 7 7 9 9 8 8 7 5 5 6 6 6 6 9 10 9 11 11 11 12 12
4 4 4 5 6 6 6 5 5 5 5 5 6 6 6 6 6 7 7 8 8 9 8 9 9 9 9 9 9 9 9 9 10 11 11 14 14 17 17 17 17 16 14 12 15 18 19 19 22 21 22 22 16 14 13 13 20 22 21 17 10 9 7 6 6 8 8 8 8 9 7 5 5 5 4 5 5 7 9 9 9 8 8 11 12
4 4 4 5 5 5 5 4 4 4 5 5 5 5 6 6 6 6 6 7 8 8 8 8 8 9 9 9 9 8 9 8 10 10 10 10 9 10 11 12 14 13 10 10 11 11 14 16 14 17 16 22 22 18 17 16 15 15 13 12 11 10 9 8 8 8 7 7 7 7 6 4 3 4 4 5 6 4 4 7 8 7 8 9 11
4 4 4 4 6 5 4 5 5 6 4 5 5 5 4 4 6 5 5 6 7 7 7 8 7 7 8 8 8 9 9 8 8 9 9 9 9 8 9 9 10 9 10 9 9 11 12 14 16 14 14 14 15 14 13 12 12 13 13 12 11 11 11 14 13 10 8 6 5 6 6 6 6 5 4 5 6 5 5 6 7 8 7 8 8
5 6 6 5 5 4 5 4 4 5 4 4 4 3 2 2 4 4 1 1 3 5 6 6 6 6 5 6 7 9 8 9 8 8 8 10 9 8 8 8 8 9 11 13 11 13 13 14 13 14 13 13 13 13 13 12 12 13 15 13 11 11 10 9 10 9 8 8 8 7 6 5 6 5 5 6 6 6 5 7 6 7 6 7 9
5 5 7 7 5 4 3 4 4 3 4 3 3 3 3 3 2 3 1 3 2 2 3 2 3 5 6 4 2 5 6 7 9 11 12 13 14 13 11 13 13 10 11 13 10 9 9 10 10 10 11 10 10 10 10 10 11 11 11 12 11 11 10 10 10 8 8 8 8 7 7 6 6 7 7 7 7 6 6 6 4 5 5 5 7
6 6 4 5 5 6 7 7 4 4 3 3 2 3 2 2 4 4 2 4 4 5 5 6 8 7 4 6 7 8 9 12 15 12 12 12 13 13 13 13 14 14 13 9 11 9 9 9 8 8 8 8 8 8 8 8 8 8 9 8 8 8 8 8 8 7 8 8 8 7 7 8 7 6 6 6 6 5 5 5 5 5 6 6 7
4 4 4 3 5 5 5 5 5 5 4 3 3 2 1 1 3 4 3 3 5 4 4 6 7 8 9 6 6 8 11 14 16 14 12 11 11 12 12 12 12 12 11 10 9 9 8 8 8 8 7 8 7 6 7 7 7 7 6 7 7 6 6 5 4 5 4 5 4 4 4 4 4 4 3 4 4 4 4 5 4 5 6 6 7
4 5 6 4 4 5 5 4 4 5 4 4 4 5 5 5 7 7 2 5 7 7 6 5 5 6 7 9 10 10 9 13 16 15 14 11 10 10 10 12 12 12 11 10 8 7 7 7 7 7 7 7 7 6 6 7 6 6 5 5 5 5 5 4 4 5 4 3 4 4 3 3 3 3 4 4 5 4 6 5 6 5 6 5 3
4 4 5 5 3 3 4 5 6 4 3 3 3 5 4 4 5 4 5 7 6 5 5 6 6 4 4 3 9 11 12 14 16 18 17 15 11 9 10 8 10 12 9 7 7 7 6 7 7 6 6 5 5 5 5 5 5 5 5 5 5 4 5 5 6 5 5 5 5 4 4 5 4 5 5 5 5 6 6 5 5 6 5 5 5
3 5 6 5 4 3 2 5 5 4 4 4 4 4 5 4 4 4 5 5 5 5 5 6 3 2 2 3 6 10 11 13 14 15 16 15 15 11 8 8 9 9 9 7 7 6 6 6 5 6 5 5 5 4 4 4 4 5 4 5 5 5 5 5 5 5 5 5 5 5 5 5 5 5 5 6 6 6 5 6 5 6 5 5 6
4 4 4 4 4 4 2 3 5 4 3 3 3 4 4 5 4 4 5 5 5 5 6 5 4 6 6 3 1 5 9 10 12 13 13 14 13 11 8 8 7 8 8 7 7 7 6 6 6 5 5 5 4 5 5 5 4 4 4 4 5 4 4 5 5 5 5 4 4 4 5 5 6 5 5 5 5 5 5 5 5 5 5 5 5
4 4 3 3 4 3 0 3 4 5 4 3 4 5 5 4 3 4 4 5 4 3 3 4 6 7 7 4 3 4 6 9 10 11 12 12 12 8 7 7 6 6 7 7 7 7 7 7 6 6 5 5 4 4 4 4 4 4 5 4 4 4 5 5 5 4 5 5 6 5 4 4 4 4 5 5 4 4 4 5 6 6 6 6 6
2 1 2 4 4 3 1 3 3 5 5 4 3 4 4 3 3 3 4 4 4 4 4 4 5 4 6 6 4 4 3 6 9 9 8 8 7 6 6 6 6 6 6 6 6 6 6 6 6 6 6 5 5 5 5 5 4 4 4 4 6 6 7 6 5 6 6 5 5 5 5 5 5 5 5 5 5 4 5 4 5 5 6 6 5
1 3 6 6 5 2 1 4 7 6 7 4 3 3 4 3 3 3 3 4 4 3 2 2 3 3 3 4 4 4 6 4 5 5 6 6 6 6 6 6 6 6 6 5 5 6 6 6 6 6 6 6 5 5 4 3 4 5 5 5 5 6 6 6 6 6 6 5 5 5 5 4 4 3 4 5 5 5 5 5 4 5 6 6 5
2 1 3 2 7 8 8 5 7 7 4 4 3 3 4 3 1 2 3 4 4 3 3 1 1 1 3 3 3 4 5 2 2 3 5 4 6 6 7 7 7 7 7 6 5 5 5 5 5 6 6 6 6 6 6 5 4 4 4 5 6 5 5 5 5 5 5 5 5 5 5 4 3 4 5 4 3 4 5 5 4 5 4 4 5
2 2 2 2 3 5 6 5 4 5 4 2 1 3 3 3 1 2 4 2 3 4 3 0 1 2 2 3 2 4 4 2 2 3 3 4 4 5 6 7 6 6 7 6 6 5 5 5 5 5 6 6 6 6 6 6 5 4 5 5 6 6 6 6 6 6 6 5 5 5 4 3 4 6 6 5 4 4 3 3 4 4 4 4 5
3 3 3 3 3 5 5 4 2 1 3 2 6 4 4 3 4 4 3 2 2 2 4 3 2 4 4 6 6 5 4 2 3 3 2 3 4 5 4 4 5 5 5 6 5 4 5 5 5 5 5 6 6 6 6 6 6 7 7 7 7 7 6 6 6 6 6 6 6 6 5 5 6 6 5 5 5 4 5 5 3 3 3 4 4
2 4 4 7 6 4 6 4 4 4 4 6 5 5 4 4 4 4 2 1 1 1 3 4 3 3 3 6 6 5 3 3 5 3 4 3 3 4 3 3 4 5 4 5 5 5 5 6 5 5 6 6 5 5 5 5 5 6 6 6 6 6 6 6 6 6 6 7 7 6 7 6 6 6 6 6 5 4 3 4 5 4 4 5 5
2 5 3 5 5 5 4 5 5 3 3 4 4 4 4 3 2 3 2 1 2 1 1 1 2 4 4 5 4 4 4 3 3 4 4 3 3 4 3 3 5 4 4 4 4 4 5 5 6 6 4 5 5 5 5 6 6 6 5 6 6 6 6 5 5 5 5 6 6 6 6 6 6 6 6 6 6 6 5 4 5 6 6 4 5
2 4 4 3 5 3 2 2 3 1 1 3 3 3 5 4 3 1 2 2 1 2 1 1 2 3 3 3 4 4 4 3 3 4 4 4 4 4 3 3 3 3 3 4 3 4 4 5 4 5 5 5 6 5 5 5 6 5 5 6 6 5 5 4 3 3 4 5 5 5 5 5 5 5 5 6 5 5 5 3 4 5 5 4 5
2 3 3 2 2 2 2 1 1 1 1 4 3 3 4 6 4 3 4 7 5 3 0 1 1 2 1 2 2 1 3 3 4 4 3 3 3 3 3 3 3 2 1 2 3 3 3 3 4 4 5 5 5 5 4 5 5 5 5 5 4 3 1 2 2 5 6 5 5 5 5 5 5 5 5 5 5 5 4 4 3 4 3 3 3
0 3 4 3 1 1 1 1 0 0 1 2 2 2 3 4 4 4 5 7 7 6 2 1 2 1 0 1 1 2 3 2 4 4 4 3 2 4 3 3 4 3 1 2 2 2 1 3 3 3 3 4 4 4 4 4 5 4 4 4 3 4 4 3 4 4 4 4 4 5 5 5 5 5 5 4 4 4 4 5 4 4 2 3 2
2 3 2 2 3 2 0 1 2 2 1 0 4 2 2 4 5 5 4 5 7 6 4 4 5 4 4 4 4 4 4 3 3 4 4 3 3 2 3 4 4 4 2 0 0 0 1 2 3 3 2 2 4 4 3 4 3 4 3 3 3 3 4 5 4 4 4 4 4 4 4 5 5 5 5 4 4 3 4 5 4 5 4 3 2
1 2 2 2 2 1 1 1 3 1 0 0 1 2 2 4 5 4 4 4 5 5 4 4 4 7 7 5 5 8 8 6 6 6 2 4 3 2 1 4 4 4 3 2 2 1 0 1 1 1 0 2 5 4 3 2 3 3 3 2 3 6 7 7 5 4 5 4 4 4 4 5 5 4 4 5 5 4 4 3 4 4 4 4 4
3 3 3 3 2 1 2 0 3 2 0 2 3 2 1 3 4 3 5 5 4 4 3 4 4 4 4 5 7 6 6 6 7 7 6 2 1 2 1 1 3 5 4 4 3 3 1 1 1 1 2 4 4 3 3 2 2 2 2 2 4 6 5 5 6 6 6 4 4 3 3 4 4 4 5 3 4 5 5 4 4 3 3 3 4
3 3 3 4 3 1 1 0 2 1 0 2 4 4 4 3 3 3 4 4 4 3 2 3 3 4 4 4 4 5 5 4 5 4 5 6 5 2 2 1 2 3 4 3 3 4 3 2 2 2 1 2 3 4 3 2 2 2 2 2 4 5 5 6 5 8 8 5 3 3 4 3 3 5 4 5 5 5 5 4 4 5 4 4 4
Wind_Direction
42 61 57 49 45 29 20 20 31 29 26 20 21 17 10 2 360 347 347 356 350 352 347 336 319 303 296 293 292 291 288 277 240 245 261 270 266 253 259 254 243 226 205 218 221 222 221 222 217 214 203 210 199 193 192 196 179 192 207 203 213 226 193 179 177 169 185 148 156 163 157 149 162 167 162 165 168 178 167 165 155 163 167 167 173
34 47 47 48 45 34 33 37 36 28 29 22 19 14 12 10 1 360 356 354 353 354 353 349 344 332 314 313 303 290 286 288 282 253 255 259 247 263 231 223 231 227 211 211 222 217 209 220 223 214 196 211 201 203 200 194 188 195 213 210 235 231 203 179 175 164 169 151 161 169 154 161 161 172 164 166 174 173 168 169 167 170 172 169 169
40 43 39 37 34 35 35 38 34 32 28 22 21 15 16 9 6 5 360 358 356 358 353 351 353 354 349 329 314 314 309 300 291 284 271 262 266 256 258 227 213 224 216 225 220 208 203 209 216 210 199 205 205 206 193 196 173 183 195 178 256 270 323 12 59 181 168 182 178 171 159 170 170 171 172 171 172 172 167 170 172 178 178 174 177
49 43 38 35 36 39 39 35 34 36 32 22 18 19 18 12 6 6 4 3 1 357 359 355 356 358 353 352 343 330 333 327 312 298 291 268 233 252 242 211 230 238 235 229 224 205 203 209 212 205 200 206 207 202 187 164 159 154 123 83 75 121 106 106 122 83 340 10 243 178 167 166 165 166 166 170 167 171 174 165 170 177 175 182 185
50 47 39 36 39 44 42 36 34 36 36 27 21 18 19 15 8 6 7 6 7 3 358 357 1 0 356 353 352 9 13 5 1 357 348 329 284 271 261 256 246 251 250 240 224 211 206 213 215 197 198 212 209 195 160 175 180 167 179 174 178 190 152 161 170 177 159 171 178 307 225 173 158 160 164 164 167 168 165 167 175 178 176 184 188
48 46 38 37 40 43 41 37 33 35 35 32 26 20 18 18 13 13 11 9 8 7 5 1 1 359 355 355 359 29 15 9 6 359 353 350 333 288 253 256 249 242 249 251 238 220 214 211 211 200 204 208 206 179 171 186 193 198 197 167 177 193 188 181 176 170 172 173 166 184 248 188 146 168 173 167 166 167 171 176 174 176 168 173 198
44 42 36 34 36 38 39 36 32 32 35 33 27 23 22 19 18 18 15 15 14 8 7 4 1 1 356 355 360 33 16 9 5 358 352 346 336 328 288 236 243 249 245 235 227 238 225 210 202 198 202 205 196 184 177 183 185 174 174 176 183 185 189 187 178 170 171 164 176 174 170 222 171 168 181 169 172 172 170 170 183 183 171 176 186
43 39 35 36 35 35 33 33 33 33 36 33 28 27 21 19 19 19 18 18 16 13 7 4 1 3 359 0 355 32 21 11 5 356 347 335 330 326 322 279 234 240 252 246 228 236 237 223 214 210 209 205 199 193 189 192 181 176 188 170 171 179 188 181 179 177 172 172 175 180 162 161 217 173 153 158 173 182 186 174 179 181 181 188 181
43 37 34 38 38 33 28 37 37 34 33 33 31 27 22 22 22 20 20 19 17 17 12 7 5 5 6 6 1 10 27 15 8 351 339 333 328 325 324 321 297 251 261 246 219 217 222 227 225 213 215 213 198 196 200 196 182 187 188 176 172 188 193 182 181 178 183 171 163 142 143 170 186 162 169 183 185 188 181 174 183 181 170 172 201
45 38 36 40 40 30 29 38 38 35 36 34 32 27 24 25 25 23 21 20 21 19 16 15 13 10 7 6 8 9 11 6 354 350 347 337 323 318 316 314 311 286 234 253 251 234 219 230 235 221 213 208 196 200 207 207 204 203 189 184 181 189 192 187 183 183 177 180 179 171 176 184 183 184 183 190 186 181 178 173 184 173 155 177 184
48 42 42 41 38 31 31 37 33 34 35 35 33 30 27 27 29 27 24 21 22 21 19 20 18 13 8 5 4 3 5 2 352 346 343 340 332 315 314 305 293 296 292 280 256 230 215 204 229 223 215 209 198 196 206 212 219 219 206 195 190 189 190 191 190 183 179 186 180 181 191 191 195 187 191 181 180 182 184 181 176 153 164 159 188
51 48 45 41 36 34 33 34 34 32 31 30 27 28 25 28 32 28 26 24 23 23 24 21 18 16 11 9 8 1 352 356 351 348 344 340 339 325 303 292 292 295 300 273 268 249 228 209 211 239 247 219 186 190 202 210 217 225 221 210 205 207 191 158 181 211 199 185 182 192 194 196 196 187 189 176 184 183 183 181 173 167 170 173 172
53 54 47 40 36 35 29 27 29 30 32 31 26 23 21 27 31 26 23 21 22 26 23 19 18 15 13 13 8 2 0 355 351 348 344 340 335 330 289 287 288 288 287 285 264 246 228 214 202 179 225 218 196 192 200 201 203 235 259 261 285 13 130 205 217 193 164 222 206 199 199 193 194 192 185 182 178 181 180 183 180 171 175 178 182
50 54 52 45 38 32 28 24 25 22 20 22 25 23 22 25 31 29 22 18 21 22 21 22 18 16 13 9 6 5 5 356 352 349 346 343 339 332 302 285 281 280 281 282 273 247 224 190 220 223 199 187 191 190 178 152 151 152 165 167 161 158 185 204 229 201 189 192 185 205 217 198 193 185 188 175 174 182 178 187 177 172 176 183 178
47 49 55 51 45 38 35 34 35 31 27 23 17 15 18 22 28 28 27 20 16 14 15 18 14 13 12 9 8 7 6 359 355 353 351 347 341 328 300 303 284 282 274 260 264 253 230 198 199 221 221 190 189 188 182 177 170 171 164 136 125 102 32 9 2 32 128 163 157 177 199 227 174 148 152 151 161 172 181 180 174 170 147 96 70
50 48 53 52 48 43 42 43 39 32 26 21 18 14 13 17 26 25 27 23 22 17 22 20 15 13 10 11 11 7 4 2 360 358 356 353 346 344 335 323 302 299 9 29 16 1 347 314 230 221 215 203 199 191 184 158 159 166 150 125 94 77 50 5 257 250 299 182 223 179 138 197 167 166 150 136 120 119 100 95 103 121 131 135 134
55 49 48 42 38 33 37 39 37 32 26 24 18 13 13 11 17 20 22 22 22 25 22 18 15 14 12 13 13 7 7 5 2 0 360 358 353 350 354 0 14 19 22 17 17 5 352 349 335 269 220 205 185 166 156 158 161 149 140 130 96 67 39 38 60 77 76 68 68 58 53 37 41 65 136 143 141 135 128 130 151 148 138 141 134
55 53 51 45 35 34 41 47 45 36 31 29 23 20 17 19 21 16 16 12 17 20 21 17 17 18 16 14 11 9 7 6 5 2 3 2 1 357 355 359 15 14 4 7 7 7 357 6 17 355 317 223 162 158 158 156 162 160 143 125 105 102 110 128 83 76 80 82 78 71 59 65 77 61 47 35 141 139 138 154 167 151 150 148 151
58 62 58 49 41 42 47 55 52 43 37 30 26 24 20 20 17 18 17 14 13 7 12 17 17 18 18 17 15 14 7 5 6 4 5 6 6 3 6 2 15 16 7 2 0 3 358 2 9 4 345 311 172 162 171 165 158 154 142 128 121 119 141 129 99 90 84 76 52 57 46 40 50 66 65 56 37 2 76 151 158 155 154 154 139
66 70 67 59 54 50 54 64 59 51 43 35 29 26 19 20 17 18 17 15 10 7 9 15 15 14 15 17 17 14 9 5 4 4 6 8 8 8 15 17 16 9 8 4 359 4 4 6 4 1 351 337 273 163 166 149 143 136 129 132 130 122 139 97 90 96 80 81 76 64 58 45 45 55 57 55 53 54 51 45 13 163 148 150 152
57 66 69 65 58 50 51 66 66 56 48 39 30 25 22 21 16 20 17 12 12 8 10 13 16 10 13 17 16 14 11 7 2 5 6 8 10 13 8 17 8 12 7 11 11 3 3 2 2 2 2 359 323 151 151 131 119 120 115 111 112 123 114 102 94 92 90 87 82 72 59 48 48 49 59 59 62 64 58 54 43 13 124 141 131
58 58 60 56 53 49 46 50 64 63 50 40 34 26 17 19 18 18 16 16 15 13 8 14 17 14 8 12 14 11 7 9 8 3 4 6 10 14 14 8 3 18 17 20 15 17 8 3 5 3 14 15 5 39 111 108 107 98 106 112 109 107 107 104 102 93 91 85 83 76 68 59 52 53 48 55 63 60 65 72 71 73 57 41 72
69 71 68 65 63 54 47 48 54 62 57 46 41 30 17 20 22 21 22 20 20 18 14 12 17 14 10 8 9 8 4 2 7 6 2 5 8 12 16 17 9 21 27 26 19 15 11 11 14 17 24 21 17 28 55 80 87 116 120 113 113 111 100 98 100 96 91 88 85 81 78 81 72 55 50 69 66 66 70 69 77 75 71 68 64
67 69 71 80 77 65 54 48 48 56 66 60 49 40 27 21 23 25 24 26 24 24 19 15 17 18 12 4 4 4 1 3 358 3 3 3 5 10 14 17 20 23 29 32 26 28 23 18 15 27 27 24 15 34 49 57 60 62 91 107 104 93 93 88 86 93 93 89 86 86 83 84 92 84 66 46 73 81 75 78 79 76 76 75 70
77 74 80 94 94 83 65 56 50 45 54 69 62 45 36 25 30 20 27 30 30 29 23 19 21 17 13 9 1 359 358 359 0 359 359 358 4 10 12 16 19 21 30 24 28 29 32 25 22 30 32 27 19 26 39 43 52 52 47 48 57 70 78 87 93 93 91 90 92 91 87 74 83 97 105 102 95 90 85 78 76 75 82 82 76
67 69 80 94 102 97 81 63 51 42 41 57 74 64 53 38 38 24 29 33 32 32 26 25 22 19 18 10 6 359 357 359 359 358 358 357 0 7 13 16 16 21 27 23 17 25 30 30 26 27 35 30 27 28 30 30 48 52 47 43 43 47 47 60 63 83 90 94 93 97 94 84 75 73 76 72 65 85 102 97 88 77 77 82 78
80 66 73 91 100 100 100 86 66 46 42 42 56 72 62 54 45 37 33 32 31 29 27 28 24 22 21 12 8 5 5 2 0 355 356 356 359 3 13 15 17 21 22 20 19 20 24 32 31 30 32 37 33 28 29 28 39 43 44 43 43 44 44 44 56 64 64 73 83 86 85 80 74 70 74 85 83 57 57 91 92 89 83 78 81
81 65 54 70 106 115 112 116 100 77 52 49 50 45 59 68 62 53 44 32 38 25 24 20 15 13 17 12 9 11 7 6 0 355 346 354 357 4 10 19 22 23 22 19 28 25 30 28 30 28 27 30 32 25 23 24 35 44 44 41 38 36 40 49 52 52 49 49 60 67 68 68 69 64 63 73 85 82 74 82 94 94 92 94 86
64 53 48 44 55 104 146 139 117 108 87 65 43 40 45 71 100 67 54 120 78 58 28 18 8 349 355 14 14 10 5 357 346 328 344 5 14 8 9 13 17 25 23 24 28 34 33 32 28 28 28 30 30 30 21 19 25 33 40 38 34 32 34 37 43 39 37 45 48 48 55 59 58 52 66 70 67 70 62 82 77 87 80 87 101
35 34 55 65 52 43 57 111 136 124 116 110 94 46 26 66 64 114 95 359 25 66 87 31 331 341 353 360 45 34 352 313 320 349 9 14 16 20 23 27 27 25 24 30 39 45 38 40 35 33 32 33 35 35 31 24 26 31 33 35 34 32 28 28 31 32 34 41 39 43 38 41 43 43 46 52 47 49 52 65 62 73 83 100 110
42 37 51 78 70 53 38 38 74 131 149 151 131 115 72 357 24 51 23 317 324 345 358 351 351 352 12 357 356 6 2 16 25 18 14 17 22 25 26 26 23 21 15 30 40 40 36 40 35 36 36 37 39 34 33 33 34 36 35 36 39 36 32 35 27 28 32 34 33 32 31 34 33 27 36 33 39 24 26 37 70 81 112 116 115
50 35 46 62 69 59 54 55 58 71 100 141 161 164 138 25 321 283 248 293 302 309 312 324 330 338 347 355 16 5 5 22 32 26 18 17 22 26 29 26 24 21 13 29 50 39 36 41 39 37 33 41 37 37 36 39 36 38 34 39 35 29 37 37 26 45 37 42 46 40 38 41 43 37 26 20 36 38 33 38 65 101 122 130 140
40 27 26 19 70 67 58 51 56 72 80 70 51 47 56 68 45 18 332 262 262 274 295 298 303 306 328 353 26 30 20 26 29 33 28 12 16 27 21 25 24 20 27 39 42 37 32 37 42 37 37 41 36 37 38 38 38 33 35 41 38 21 25 23 41 45 45 46 57 51 49 49 48 41 24 25 35 35 30 33 37 76 103 116 109
83 65 45 33 21 67 77 59 60 65 88 80 72 55 54 72 71 63 42 26 1 330 290 263 259 287 306 348 24 28 24 33 33 29 26 25 13 6 23 9 13 23 40 40 35 35 32 39 36 35 32 38 37 36 39 38 36 40 36 34 28 20 18 16 33 27 28 25 29 22 29 33 42 63 60 54 50 55 49 43 59 76 76 97 112
47 57 61 62 57 12 3 74 75 78 69 70 66 65 55 62 81 56 54 65 58 38 10 359 356 151 140 67 33 40 29 33 36 35 29 22 19 20 28 26 27 16 21 25 29 28 29 28 31 29 32 33 26 33 34 30 30 33 34 28 23 20 17 21 21 21 24 27 31 27 34 55 56 62 69 65 59 54 50 55 52 67 79 72 85
65 57 36 40 33 25 357 49 71 87 87 78 77 71 71 73 65 48 44 60 74 56 20 5 350 9 50 117 210 55 35 28 36 35 35 27 19 19 31 30 28 27 26 22 24 24 28 27 29 29 30 32 31 33 30 31 24 26 19 29 24 25 24 19 13 15 13 29 34 43 51 63 77 81 71 64 71 77 70 70 68 63 72 79 83
106 93 52 11 40 31 25 72 67 87 104 85 63 50 50 61 64 55 45 58 74 61 38 10 8 2 3 29 75 60 40 34 30 27 27 32 25 25 33 30 29 24 29 25 25 25 27 20 20 24 25 30 31 31 35 32 26 22 15 22 26 26 8 2 3 13 20 14 13 32 52 50 46 53 79 78 55 53 56 62 60 57 63 76 90
117 100 59 42 46 25 97 71 51 69 88 88 73 75 61 52 65 84 63 48 79 90 60 24 27 14 15 340 21 63 73 25 27 22 18 22 26 28 23 19 21 27 23 27 26 28 27 25 22 21 12 17 24 25 30 29 44 51 38 26 13 2 0 2 358 2 3 13 26 60 75 69 77 83 76 74 70 61 51 57 75 74 63 61 77
96 354 356 359 11 14 108 54 46 61 53 66 51 57 51 41 42 55 51 36 47 78 108 50 21 10 342 325 10 8 53 22 36 35 30 27 21 28 28 20 16 16 16 24 29 34 34 31 25 28 27 20 10 1 19 15 8 2 353 0 16 34 36 42 36 32 33 34 32 31 50 52 51 57 80 83 69 72 68 67 77 84 78 71 71
139 298 287 339 39 19 49 64 74 57 53 57 24 29 36 21 23 99 87 56 31 51 103 100 349 307 309 344 1 31 78 66 90 75 60 41 36 31 36 30 22 22 19 13 12 25 38 33 28 30 25 22 16 9 357 352 2 4 16 40 50 41 39 48 51 43 34 27 31 27 50 54 50 48 41 46 81 94 85 87 91 81 77 82 77
185 143 93 37 40 58 63 62 68 73 75 74 22 358 342 356 45 79 72 65 44 37 74 124 251 286 294 317 358 80 82 133 150 120 105 84 59 51 45 38 35 28 23 22 20 16 27 33 30 28 25 21 18 24 20 22 5 37 52 39 42 38 33 27 22 21 19 26 24 29 17 19 35 49 29 5 20 56 71 81 69 72 75 81 97
76 91 93 69 71 76 71 58 41 20 77 24 1 346 326 356 58 92 90 93 55 38 43 24 314 277 314 327 339 33 67 78 119 114 103 91 81 70 57 46 44 47 36 25 20 22 14 27 25 25 22 15 18 19 34 38 46 46 49 51 46 41 39 30 27 25 22 15 12 7 15 32 32 37 42 38 32 31 35 27 33 49 78 87 78
34 62 80 74 68 81 76 27 32 29 20 36 20 9 32 45 87 108 120 104 64 50 67 39 10 4 341 306 343 20 66 56 71 97 121 117 104 92 83 75 58 52 45 37 32 39 41 39 33 28 31 18 14 25 45 59 61 65 59 56 48 47 40 29 25 20 20 28 25 21 24 27 37 36 27 23 42 60 56 72 72 62 45 44 63
21 67 65 93 94 88 70 51 41 48 70 58 52 33 33 16 42 76 84 30 35 4 31 42 23 31 23 345 2 28 30 29 54 77 97 109 124 121 120 95 69 46 34 29 27 38 50 44 29 14 16 18 17 29 48 54 63 65 64 66 59 48 39 31 27 16 19 32 26 23 23 34 40 35 30 20 22 35 38 42 49 60 71 66 66
48 73 65 80 98 96 74 54 76 115 112 67 20 13 14 36 48 61 18 354 304 359 37 159 55 47 17 10 33 21 23 25 65 94 100 116 130 152 158 119 99 78 49 23 26 54 48 45 34 28 19 15 25 40 53 56 58 64 65 73 69 56 39 29 8 357 32 43 30 21 20 35 39 37 34 22 22 28 29 51 76 62 53 64 86
90 79 70 80 107 117 126 159 27 82 134 105 83 23 4 35 30 41 22 30 3 321 303 219 57 63 29 17 34 6 33 27 58 108 124 111 104 122 160 150 126 117 75 28 36 61 50 56 40 23 23 26 39 56 57 61 59 60 61 68 74 69 33 7 9 36 33 35 32 23 15 27 35 37 36 37 27 30 33 15 40 74 92 91 107
276 124 103 55 40 190 153 187 202 1 68 127 111 40 44 56 49 26 30 25 23 16 347 354 87 81 268 311 352 9 47 50 66 121 148 140 128 107 124 143 128 108 47 40 51 48 42 22 15 9 9 31 70 81 88 77 75 69 63 59 56 47 30 32 40 43 35 29 31 39 33 31 20 14 12 23 38 29 31 26 23 26 25 82 69
117 105 120 81 47 2 311 80 100 245 28 311 138 109 102 75 64 52 19 29 19 8 359 38 45 19 19 24 52 45 30 15 39 98 136 152 183 165 135 142 150 156 144 97 333 318 0 43 40 47 59 34 67 88 75 77 79 77 61 54 55 61 47 51 41 30 17 29 32 39 35 29 16 14 9 12 10 28 39 7 7 24 5 358 69
213 119 107 119 70 343 310 358 108 81 256 309 149 128 97 76 79 75 49 38 30 19 24 35 32 43 48 30 25 21 18 21 14 31 99 187 181 195 177 124 143 172 149 169 242 258 346 355 13 348 169 62 73 107 105 95 83 83 83 75 64 63 56 53 46 27 12 25 22 24 31 31 19 12 11 15 11 3 17 6 38 26 13 10 352
186 175 184 134 114 46 4 18 106 126 199 59 102 94 75 80 77 74 65 47 29 9 10 38 41 59 68 62 54 46 44 30 17 11 12 15 220 212 215 116 128 157 175 195 219 240 272 293 302 336 13 50 94 109 122 117 117 119 119 102 80 64 54 45 44 30 29 19 18 20 42 33 22 25 25 13 25 27 20 357 356 9 12 8 359
268 228 169 151 154 194 75 87 46 60 22 74 85 119 122 110 125 117 80 57 35 7 353 45 43 52 54 73 84 72 53 32 21 17 16 23 19 323 271 186 154 158 156 166 216 240 220 198 261 299 70 117 122 133 133 137 150 150 134 97 73 61 43 34 20 5 14 10 12 19 30 23 34 21 10 4 12 12 359 351 354 354 340 334 329